OV1-4 R/B, 2124

Orbit data source: Space-Track

OV1-4 R/B, 2124 is space debris in LEO originally from a launch on Wed, 30 Mar 1966 UTC launched from the Air Force Western Test Range (AFWTR). Debris objects in space refer to the collection of defunct objects orbiting the Earth. Examples of debris include non-operational satellites, rocket bodies, and fragments generated from explosions, collisions, or faulty payload assembly.

Loading next visibility...
Identifier
2124, 1966-025D
Orbit
LEO
Last TLE update
17 hours ago
Origin
Manufacturer
ABL
Mission
Spacecraft
Bus & Motor
ALTAIR, Unknown motor
Mass
~125 kg wet, ~125 kg dry
Launch date (UTC)
1966-03-30 (59 years ago)
Launch vehicle
Unknown
Launch site
Air Force Western Test Range (AFWTR)
Object type
Payload
Rocket body
Debris
Shape & HBR
Cyl, 2.1 m
Radar Cross Section
1.347 m², Medium (>0.1 m² and < 1m²)

Expand to show TLE details & history

TLE from 17 hours ago
0 OV1-4 R/B
1 02124U 66025D   25166.84123622  .00000381  00000-0  89640-4 0  9999
2 02124 144.5135  14.5487 0080504  10.7811 349.4588 13.87770096   681
Epoch: 2025-06-15T20:11Z
TLE epoch observation values (Epoch: 2025-06-15T20:11:22.809Z)
Latitude
-0.00002°
Longitude
167.34314°
Altitude
877.613 km
Speed
7.445 km/s
True Right ascension
00h 58m 11s
True Declination
0° 00' 00"
Sunlit
Object was in daylight at epoch
Visualization orbit readout
Latitude
-33.57657°
Longitude
-121.2535°
Altitude
942.111 km
Speed
7.383 km/s
Apparent Right ascension
08h 19m 59s
Apparent Declination
-46° 10' 03"
Sunlit
Object is in daylight
Visualization observer readout
Local Sidereal Time
23:46:51
Azimuth
117.081° SE
Elevation
-52.369°
Doppler factor
1
Orbital elements
Apogee altitude
998.348 km
Perigee altitude
880.53 km
Semi-major axis
7,317.576 km
Eccentricity
0.00805
Inclination
144.5135°
RAAN
14.5487°
Arg. of periapsis
10.7811°
True anomaly
Unknown
Mean anomaly
349.4588°
Eccentric anomaly
Unknown
Mean motion
3.46731 °/min
Orbital period
103.83 mins
BSTAR
0.00008964
Loading maneuver chart data...
Loading SW <> Apogee altitude chart data...
Loading historical data...
Loading historical data...
Loading historical data...
Loading historical data...
Loading historical data...
Loading historical data...
Loading historical data...

OV1-4 R/B Visibility forecast

Observer location: undefined°, undefined°

Span
Click to sort rows by Start time (UTC) header in descending order
Start Az.
Max El. time (UTC)
Max El. Az.
Max El.
End time (UTC)
End Az.
8 mins2025-06-17 05:32:06.629Z107.184° ESE2025-06-17 05:36:06.629Z160.303° S23.492°2025-06-17 05:40:06.629Z208.035° SW
9 mins2025-06-17 07:10:06.629Z99.174° ESE2025-06-17 07:14:06.629Z162.878° S36.405°2025-06-17 07:19:06.629Z239.313° WSW
8 mins2025-06-17 08:49:06.629Z109.21° ESE2025-06-17 08:52:06.629Z161.404° S39.781°2025-06-17 08:57:06.629Z257.453° W
8 mins2025-06-17 10:27:06.629Z129.745° SE2025-06-17 10:31:06.629Z202.261° SSW34.494°2025-06-17 10:35:06.629Z261.467° W
6 mins2025-06-17 12:07:06.629Z173.864° S2025-06-17 12:09:06.629Z201.856° SSW19.995°2025-06-17 12:13:06.629Z252.482° W
|